Tracking 34403 objects as of 13-Jun-2026
HD Live streaming from Space Station
objects crossing your sky now

GSAT 30

Track GSAT 30 now!
GSAT 30 is classified as:


NORAD ID: 45026
Int'l Code: 2020-005A
Perigee: 35,779.4 km
Apogee: 35,808.1 km
Inclination: 0.1 °
Period: 1,436.1 minutes
Semi major axis: 42164 km
RCS: Unknown
Launch date: January 16, 2020
Source: India (IND)
Launch site: FRENCH GUIANA (FRGUI)
Your satellite tracking list
Your tracking list is empty




NASA's NSSDC Master Catalog

Two Line Element Set (TLE):
1 45026U 20005A   26163.13864300 -.00000149  00000-0  00000-0 0  9992
2 45026   0.0606 101.2783 0003400 342.3492 309.7435  1.00271807 23458
Source of the keplerian elements: AFSPC